TIME,DELAY(SENSOR),PRES,T(CTD),SAL,OXYGEN,RAWTEMP,T(OPTODE),TCPHASE,FLUOR,BETA(BETA700),BETA(BETA412),BETA(BETA440),CDOM,C(CSC),ED(ED412.40),ED(ED444.00),ED(ED489.70),ED(ED554.30),LU(LU411.80),LU(LU443.40),LU(LU489.60),LU(LU554.10),COMP,TILTX,TILTX(TILTY),CHECK
1370554887,5807,497.9200134277344000,6.1076002120971680,34.1511993408203100,61.0466995239257800,615.7803955078125000,6.0733008384704590,51.4827003479003900,52,103,87,81,79,14798,2147752146,2147425142,2148004836,2147874816,2147629412,2147070153,2148248749,2147198006,2139,4,13,3836
1370555026,5807,486.9400024414062500,6.3134999275207520,34.1489982604980500,63.9933204650878900,609.0477905273438000,6.2915968894958500,51.0069694519043000,52,103,89,79,78,14798,2147747273,2147423405,2148006144,2147874267,2147632502,2147067803,2148245632,2147199305,2354,4,13,47598
1370555180,5810,475.2000122070312500,6.4071002006530760,34.1293983459472660,69.3556671142578100,605.8734741210938000,6.3943648338317870,50.2809791564941400,52,103,90,80,78,14799,2147749211,2147424246,2148006299,2147869860,2147626569,2147068763,2148244516,2147199460,2759,4,13,1195
1370555319,5810,464.9299926757812500,6.5907998085021970,34.1267013549804700,75.0050888061523400,600.1555786132812000,6.5792407989501950,49.5067100524902340,53,104,89,80,78,14799,2147745627,2147424082,2148006802,2147873106,2147630665,2147070966,2148244672,2147197430,1968,4,13,37322
1370555455,5810,453.4100036621094000,6.7554998397827150,34.1100997924804700,81.5267028808593800,595.0811157226562000,6.7430500984191895,48.6577796936035160,52,105,86,79,78,14796,2147745124,2147427355,2148006317,2147871588,2147629915,2147075602,2148244470,2147201984,239,4,13,64908
1370555570,5809,441.8099975585937500,6.9246997833251950,34.0969009399414060,90.4545593261718800,590.0474243164062000,6.9053020477294920,47.5687217712402340,51,103,84,80,77,14800,2147744914,2147426139,2148005796,2147870921,2147628836,2147073654,2148238381,2147201124,3356,3,13,60930
1370555673,5810,431.3399963378906000,7.0704998970031740,34.0878982543945300,101.3859024047851600,585.1110839843750000,7.0641880035400390,46.3179893493652340,51,104,91,80,77,14798,2147747968,2147427602,2148003894,2147870784,2147624274,2147070208,2148241545,2147199625,2535,4,13,21283
1370555791,5811,419.5199890136719000,7.3091001510620120,34.0829010009765600,108.6750030517578100,577.3615722656250000,7.3131728172302250,45.4457893371582000,52,103,86,80,76,14799,2147742985,2147425618,2148001590,2147872512,2147623881,2147072557,2148236288,2147203547,1315,4,13,20070
1370555906,5808,408.3099975585937500,7.4854001998901370,34.0815010070800800,115.9279022216796900,571.6458129882812000,7.4964771270751950,44.6360206604003900,51,103,87,80,76,14800,2147741732,2147425115,2148004059,2147871149,2147625051,2147074642,2148235264,2147203236,727,4,13,1710
1370556035,5811,396.7500000000000000,7.8147001266479490,34.0769996643066400,126.7185974121093800,562.0609130859375000,7.8032088279724120,43.4571189880371100,50,105,87,81,77,14796,2147740845,2147427968,2148000795,2147872969,2147619858,2147077577,2148237010,2147200274,2436,3,13,5486
1370556174,5808,385.4400024414062500,8.0600996017456050,34.0858001708984400,135.5648956298828000,554.5498046875000000,8.0430278778076170,42.5352592468261700,51,105,88,80,75,14795,2147742811,2147423972,2148007204,2147874212,2147616914,2147075867,2148232685,2147202340,1217,4,13,16404
1370556313,5808,375.0400085449219000,8.3619003295898440,34.0895004272460940,146.1748962402343800,544.9639282226562000,8.3484096527099610,41.4671592712402340,50,106,89,80,75,14793,2147739456,2147427693,2148005065,2147875876,2147618688,2147080457,2148236745,2147204315,405,4,13,8415
1370556450,5808,363.4700012207031000,8.8912000656127930,34.0989990234375000,156.8983001708984400,527.8491821289062000,8.8917961120605470,40.3070182800293000,50,106,83,79,73,14793,2147741933,2147426468,2148004653,2147870628,2147615094,2147083666,2148231908,2147201636,2284,4,13,17875
1370556565,5808,352.1900024414062500,9.2395000457763670,34.1040992736816400,167.2702941894531200,517.3297119140625000,9.2246646881103520,39.3356094360351560,50,104,83,80,73,14795,2147738432,2147428388,2148006153,2147872576,2147615040,2147084973,2148226523,2147203529,1217,4,13,45805
1370556682,5808,340.3200073242187500,9.4430999755859380,34.1086006164550800,172.6316986083984400,509.7791137695312500,9.4630794525146480,38.8158493041992200,50,105,88,80,72,14790,2147739510,2147426038,2148010550,2147874889,2147611894,2147090669,2148230802,2147203401,750,3,13,26121
1370556797,5807,329.2900085449219000,9.9607000350952150,34.1175994873046900,186.9293060302734400,494.3414001464844000,9.9492692947387700,37.5652885437011700,50,106,88,80,72,14790,2147736137,2147427072,2148012406,2147872493,2147612653,2147093476,2148232941,2147203620,3335,4,13,24871
1370556912,5806,318.3900146484375000,10.2985000610351560,34.1296997070312500,197.3159027099609400,483.6895141601562500,10.2837896347045900,36.7160987854003900,49,105,89,80,69,14794,2147736018,2147430454,2148014893,2147873261,2147610377,2147097883,2148231360,2147202185,3274,3,13,3651
1370557041,5807,306.5799865722656000,10.7270002365112300,34.1486015319824200,211.6502990722656200,469.7001953125000000,10.7219896316528320,35.6207618713378900,50,104,84,80,69,14795,2147730697,2147428187,2148019072,2147873718,2147604754,2147101467,2148226112,2147205293,2354,3,13,15482
1370557168,5807,294.4800109863281000,11.0114002227783200,34.1689987182617200,218.4380035400390600,460.6637878417969000,11.0044002532958980,35.0868492126464840,49,104,85,79,69,14796,2147731227,2147431954,2148031396,2147871808,2147606518,2147106368,2148235428,2147204754,1406,3,13,39524
1370557283,5805,283.1499938964844000,11.4090003967285160,34.1939010620117200,224.7720947265625000,447.3049011230469000,11.4210100173950200,34.5244712829589840,49,104,92,81,69,14791,2147726317,2147435803,2148044973,2147870738,2147604123,2147107949,2148238912,2147208283,1010,3,14,2539
1370557401,5807,271.6300048828125000,11.6562004089355470,34.1730003356933600,209.3137054443359400,439.0745849609375000,11.6771802902221680,35.2582893371582000,49,107,86,80,68,14783,2147728118,2147438884,2148063478,2147872329,2147603062,2147116068,2148246985,2147208640,334,3,13,9539
1370557516,5807,260.8999938964844000,12.1007995605468750,34.1903991699218750,209.5780029296875000,426.3677978515625000,12.0719699859619140,35.0404586791992200,49,108,86,80,69,14781,2147730166,2147449837,2148091931,2147872182,2147597348,2147121856,2148256338,2147210194,2725,3,13,9290
1370557631,5806,250.8899993896484400,12.3487997055053710,34.1833992004394500,208.4109954833984400,417.6346130371094000,12.3428297042846680,34.9694404602050800,50,108,85,80,69,14784,2147728420,2147461586,2148126683,2147872896,2147598016,2147132434,2148272594,2147212205,2732,3,14,19210
1370557785,5810,239.5800018310547000,13.1639995574951170,34.2439002990722660,214.8276062011718800,390.5750122070312500,13.1798000335693360,34.1803398132324200,48,103,88,80,67,14789,2147726034,2147482569,2148185782,2147870738,2147596973,2147147181,2148296356,2147210011,3544,3,14,40826
1370557960,5809,229.1600036621093800,13.6767997741699220,34.2650985717773440,220.2837066650390600,374.5783996582031000,13.6731300354003900,33.6351890563964840,48,105,88,81,69,14785,2147726500,2147506953,2148254683,2147874998,2147595702,2147168256,2148327789,2147213458,2117,3,14,44339
1370558119,5806,217.3899993896484400,14.2554998397827150,34.3073005676269500,214.8963012695312500,354.3783874511719000,14.2947397232055660,33.6262092590332000,48,104,85,80,67,14780,2147731218,2147555629,2148379830,2147876635,2147596626,2147199177,2148380315,2147217572,1928,3,15,424
1370558246,5810,206.5000000000000000,14.8390998840332030,34.3605003356933600,213.1692047119140600,337.0086059570312500,14.8282003402709960,33.4636497497558600,49,105,92,80,66,14780,2147743433,2147625051,2148534829,2147872000,2147594605,2147240320,2148456146,2147222637,1410,3,13,43540
1370558357,5810,197.6999969482422000,15.0566997528076170,34.3801002502441400,213.4573974609375000,329.2420959472656000,15.0664501190185550,33.3329200744628900,49,108,86,81,66,14777,2147757019,2147700507,2148692105,2147873572,2147597385,2147283026,2148529426,2147232868,1188,3,15,2283
1370558412,5806,193.5899963378906200,15.2145996093750000,34.3899993896484400,211.9436035156250000,323.9404907226562500,15.2289896011352540,33.3390884399414060,50,106,88,81,67,14780,2147765357,2147759094,2148811794,2147876653,2147604955,2147315099,2148580982,2147238043,1107,2,14,22733
1370558467,5803,189.7299957275390600,15.5331001281738280,34.4350013732910160,211.4356994628906200,312.3452148437500000,15.5842599868774410,33.1975288391113300,50,104,86,80,66,14777,2147777901,2147802797,2148911040,2147874496,2147605714,2147347721,2148631515,2147240384,557,2,15,46926
1370558522,5808,186.2500000000000000,15.9910001754760740,34.4959983825683600,213.5906066894531200,299.4401855468750000,15.9793195724487300,32.8899803161621100,51,106,89,81,65,14775,2147788434,2147846445,2148992905,2147875565,2147607268,2147371117,2148674020,2147244882,28,3,14,16110
1370558589,5809,182.3899993896484400,16.4536991119384770,34.5573005676269500,214.0242004394531200,283.5385131835937500,16.4657096862792970,32.6374015808105500,51,107,87,80,66,14671,2147806784,2147908818,2149121645,2147875364,2147616429,2147406628,2148734400,2147249142,2833,3,14,25667
1370558667,5809,178.6799926757812500,16.9778003692626950,34.6430015563964840,217.3043060302734400,269.9179077148437500,16.8820495605468750,32.2652893066406250,52,110,91,81,64,14768,2147825371,2147977307,2149259209,2147877238,2147622738,2147449664,2148803172,2147252626,2970,3,15,56989
1370558782,5809,175.0000000000000000,17.2245998382568360,34.6701011657714840,218.4490051269531200,259.3461914062500000,17.2050495147705080,32.0550994873046900,56,104,87,81,65,14768,2147848530,2148049289,2149385225,2147876635,2147623725,2147500233,2148860873,2147259849,2984,2,15,49211
1370558909,5807,171.1399993896484400,17.3169994354248050,34.6786994934082000,216.2937011718750000,255.8883972167968800,17.3106803894042970,32.1218185424804700,57,111,89,81,64,14759,2147885723,2148165129,2149597723,2147878857,2147640786,2147566902,2148968859,2147268114,2126,3,15,42222
1370559020,5810,166.5299987792968800,17.9321002960205080,34.7787017822265600,216.0083007812500000,236.6847991943359400,17.8971996307373050,31.8689594268798830,58,118,88,81,64,14758,2147929819,2148273206,2149786011,2147880539,2147659264,2147637412,2149064018,2147275090,1251,2,15,37267
1370559111,5806,162.3999938964843800,18.0610008239746100,34.8056983947753900,218.8507995605468800,231.7709960937500000,18.0472507476806640,31.6495094299316400,59,115,90,81,64,14753,2147976036,2148394496,2150014902,2147884507,2147681490,2147719478,2149174235,2147281389,117,3,14,31106
1370559190,5808,158.5000000000000000,18.1576004028320300,34.8223991394043000,220.0829010009765600,228.1911010742187500,18.1565799713134770,31.5354595184326170,61,115,88,82,63,14754,2148041920,2148576118,2150371328,2147885622,2147709211,2147823908,2149353389,2147293129,656,3,15,10537
1370559271,5804,154.5200042724609400,18.3756999969482420,34.8597984313964840,221.4918060302734400,221.7082977294922000,18.3545494079589840,31.3726596832275400,64,114,89,80,64,14743,2148120557,2148749842,2150695268,2147886052,2147739584,2147937124,2149515410,2147304301,424,2,15,61139
1370559362,5806,150.6300048828125000,18.6236000061035160,34.9019012451171900,222.7272949218750000,213.6385955810547000,18.6009998321533200,31.1987895965576170,69,112,90,81,63,14740,2148222564,2148971062,2151088164,2147889563,2147782573,2148069888,2149696731,2147317942,592,3,15,2188
1370559465,5809,146.9900054931640600,18.8892002105712900,34.9402999877929700,222.9609069824218800,204.5702056884765600,18.8779697418212900,31.0634593963623050,75,119,89,83,63,14731,2148332004,2149183725,2151456777,2147897115,2147833709,2148197330,2149864950,2147330761,608,2,15,8295
1370559568,5809,142.8000030517578000,19.1196994781494140,34.9751014709472660,223.5084991455078000,197.1871948242187500,19.1035099029541000,30.9356708526611330,82,123,90,81,63,14732,2148475702,2149465508,2151928649,2147903524,2147895387,2148359542,2150079707,2147348644,2674,2,15,1860
1370559650,5807,138.6799926757812500,19.3001003265380860,35.0021018981933600,223.9519958496093800,191.4553985595703000,19.2786407470703120,30.8358001708984380,87,121,88,82,62,14717,2148676608,2149851346,2152572662,2147913325,2147984320,2148573568,2150380278,2147367552,2173,2,15,884
1370559729,5810,134.2700042724609400,19.4640998840332030,35.0266990661621100,224.3618011474609400,186.0337982177734400,19.4443206787109380,30.7422409057617200,94,120,92,83,62,14720,2148935104,2150361801,2153444242,2147926180,2148090532,2148836900,2150739309,2147394450,2610,2,15,33304
1370559796,5806,130.5299987792968800,19.6305007934570300,35.0533981323242200,224.8475036621093800,180.4674987792968800,19.6144599914550780,30.6433296203613280,97,123,90,82,62,14718,2149167570,2150761252,2154059017,2147941229,2148194587,2149055945,2151021330,2147419648,3078,2,15,25809
1370559875,5807,126.5000000000000000,19.8197002410888670,35.0831985473632800,225.4629974365234400,174.4340057373047000,19.7989196777343750,30.5317497253417970,100,121,88,83,61,14711,2149484973,2151357741,2155056338,2147964644,2148330313,2149356873,2151430537,2147453238,2772,2,15,10735
1370559969,5806,122.8700027465820300,20.0456008911132800,35.1147994995117200,226.0821990966797000,168.5155944824218800,19.9799098968505860,30.4223403930664060,108,124,87,83,61,14696,2149820004,2151960009,2156056073,2147986706,2148461147,2149626066,2151787017,2147486390,3340,2,15,40406
1370560132,5806,119.5299987792968800,20.1392993927001950,35.1327018737793000,228.0709991455078000,163.4237976074218800,20.1356601715087900,30.2561092376709000,115,127,93,83,62,14693,2150214400,2152611410,2157150317,2148014985,2148612845,2149881014,2152153874,2147520722,3483,2,15,7265
1370560354,5809,115.1200027465820300,20.2649993896484380,35.1198005676269500,228.5028991699218800,158.5482940673828000,20.2848491668701170,30.1708393096923830,140,131,89,83,61,14653,2151385051,2154412434,2159718354,2148069924,2148995730,2150445467,2152913664,2147592246,2492,2,15,50240
1370560469,5807,110.5999984741211000,20.4424991607666000,35.1222991943359400,229.9221954345703000,153.4022064208984400,20.4423503875732420,30.0334396362304700,158,130,89,84,63,14626,2152890386,2156684763,2162786861,2148155803,2149507300,2151263204,2153952539,2147701266,983,2,16,15937
1370560560,5809,105.8499984741211000,20.5529994964599600,35.1156005859375000,231.3020935058593800,149.6696929931640600,20.5566291809082030,29.9177608489990230,170,138,90,85,62,14595,2149563840,2150297307,2151892278,2147941760,2148227648,2148368749,2149636022,2147346304,3237,2,15,7588
1370560615,5807,102.2300033569336000,20.6707000732421880,35.1189994812011700,232.3428955078125000,146.1481018066406200,20.6644706726074220,29.8217391967773440,182,138,94,85,62,14584,2150902573,2152310153,2154563245,2148007113,2148664219,2149118500,2150592649,2147438921,2497,2,16,30660
1370560682,5810,98.0299987792968800,20.8110008239746100,35.1304016113281250,234.8114929199218800,141.5148010253906200,20.8064002990722660,29.6436500549316400,206,142,90,86,62,14550,2161878665,2169775113,2178985654,2148679616,2152272438,2155607058,2159213312,2148258386,2284,2,15,30083
1370560737,5808,94.8300018310546900,20.9379997253417970,35.1468009948730500,236.3730926513672000,137.5957031250000000,20.9264907836914060,29.5192394256591800,191,147,89,86,63,14541,2165483730,2174673024,2184291648,2148852004,2153363574,2157151972,2160851730,2148447515,2094,2,15,31745
1370560792,5810,92.0199966430664000,21.1284008026123050,35.1656990051269500,238.3536071777343800,131.6616973876953000,21.1083908081054700,29.3504600524902340,122,134,94,86,60,14573,2169032384,2178907108,2188157741,2149044992,2154689755,2158959204,2162643602,2148654738,1703,2,15,2138
1370560850,5807,89.4800033569336000,21.2402992248535160,35.1623992919921900,239.6513061523437500,127.3641967773437500,21.2401790618896500,29.2350997924804700,102,125,91,84,60,14624,2172150098,2182295707,2190997915,2149234349,2156010916,2160707163,2164188918,2148825956,1345,1,15,41972
1370560905,5809,87.4899978637695300,21.3971996307373050,35.1717987060546900,240.5218963623047000,122.8287963867187500,21.3793106079101560,29.1371498107910160,87,122,88,84,58,14642,2175421284,2185923556,2194404653,2149434514,2157507840,2162691090,2165878153,2149009453,375,1,15,35156
1370560960,5808,85.9800033569336000,21.4778003692626950,35.1604995727539060,241.2816925048828000,119.4834976196289000,21.4819793701171880,29.0595207214355470,83,119,91,84,61,14649,2178141778,2188905325,2197104118,2149586258,2158919241,2164570669,2167466166,2149183122,3198,1,16,33629
1370561027,5806,84.3600006103515600,21.5725994110107420,35.1613998413085940,242.1712036132812500,116.6968994140625000,21.5675201416015620,28.9836101531982420,80,122,90,84,58,14658,2181255277,2192241261,2200178697,2149756726,2160626825,2166850194,2169453430,2149388498,2571,2,15,45232
1370561118,5810,82.0699996948242200,21.9839000701904300,35.1873016357421900,242.3710937500000000,104.7265014648437500,21.9352397918701170,28.8223590850830080,77,120,89,83,59,14644,2185850404,2197120676,2204816603,2150127634,2163132443,2170056886,2172118089,2149686537,2432,2,15,10793
1370561197,5809,79.9499969482421900,22.0662002563476560,35.1986007690429700,243.9526977539062500,100.7270965576171900,22.0582008361816400,28.7004699707031250,73,123,93,84,59,14637,2190128987,2201623734,2209253394,2150512941,2165710034,2173209508,2174673133,2149969856,2027,2,16,2422
1370561252,5810,77.6500015258789000,22.0979003906250000,35.1997985839843750,245.0691986083984400,99.2994689941406200,22.1021003723144530,28.6326808929443360,73,122,90,84,57,14634,2194159652,2205350317,2212334089,2150876580,2168390811,2176392566,2177226651,2150249088,1348,2,15,30943
1370561307,5809,74.9599990844726600,22.1527004241943360,35.1997985839843750,246.0805969238281200,97.8649673461914000,22.1462192535400400,28.5699005126953120,72,123,90,84,60,14630,2202109568,2214299693,2221831085,2151722971,2172659757,2181537069,2181566884,2150758729,815,2,16,39329
1370561362,5808,72.0999984741211000,22.3264007568359380,35.1873016357421900,246.0666961669922000,92.2446975708007800,22.3191604614257800,28.4996204376220700,72,124,90,84,60,14620,2209319360,2221599817,2228770496,2152546084,2176684534,2186211574,2185375570,2151234029,362,1,15,43429
1370561417,5811,69.6399993896484400,22.3847007751464840,35.1952018737793000,247.0039062500000000,90.1038665771484400,22.3850708007812500,28.4314308166503900,71,124,92,86,56,14629,2214702601,2226531181,2232786121,2153162450,2180172662,2189884086,2188137892,2151592621,3323,2,16,22529
1370561472,5807,67.4899978637695300,22.4300994873046880,35.2006988525390600,247.6027984619140600,88.7769470214843800,22.4259204864501950,28.3885707855224600,71,123,90,85,60,14624,2221124004,2232851629,2239100388,2154013897,2184353920,2194652297,2191909330,2152054326,185,2,15,61294
1370561530,5805,65.3799972534179700,22.4752006530761720,35.2042999267578100,248.3211975097656200,87.1709365844726600,22.4753799438476560,28.3369808197021500,69,124,92,83,57,14627,2231073124,2243606628,2249948315,2155294336,2190014290,2201231762,2197370331,2152768237,340,1,15,29388
1370561585,5805,63.5200004577636700,22.5051994323730470,35.2033996582031250,248.7512969970703000,86.1770401000976600,22.5059890747070300,28.3057403564453120,69,124,93,84,58,14619,2236402587,2248292946,2253622985,2156072064,2194150089,2205510637,2200353664,2153161106,3521,1,15,2913
1370561640,5809,61.8100013732910160,22.5352993011474600,35.2032012939453100,249.0666046142578000,85.0307998657226600,22.5412998199462900,28.2776603698730470,70,122,90,85,60,14623,2242407405,2253712630,2258286994,2157148900,2199348242,2211153956,2204824576,2153796882,2959,1,16,61643
1370561695,5807,60.2900009155273440,22.5979003906250000,35.2067985534668000,249.2552032470703000,83.1440963745117200,22.5994300842285160,28.2459297180175780,68,123,89,85,58,14615,2250824246,2262284836,2266496045,2157877869,2204641152,2216837485,2208950765,2154358409,2340,2,16,31582
1370561786,5808,58.2999992370605500,22.7035007476806640,35.2145004272460940,249.5095062255859400,80.1135101318359400,22.6928291320800780,28.1971206665039060,66,125,89,84,58,14617,2262857645,2274405650,2278576246,2160082962,2212744448,2225527030,2215803209,2155392356,2583,2,16,33065
1370561877,5809,56.1800003051757800,22.9799995422363280,35.2239990234375000,250.3881988525390600,71.2835617065429700,22.9651603698730470,28.0492095947265620,64,122,93,84,58,14610,2275900589,2286039076,2288725485,2162010989,2223157860,2235339620,2222350070,2156250642,2988,2,15,15217
1370561944,5805,54.2999992370605500,23.1303005218505860,35.2246017456054700,250.4848022460937500,66.7546463012695300,23.1049709320068360,27.9887504577636720,63,121,94,85,57,14615,2292663506,2303362834,2306932013,2165169636,2233116086,2245222884,2229384118,2157314934,254,2,15,61023
1370562023,5806,52.2400016784668000,23.2068004608154300,35.2274017333984400,251.2709045410156200,63.3797607421875000,23.2091999053955080,27.9130592346191400,62,122,92,85,53,14613,2260926473,2264432740,2263293129,2160895414,2218896393,2225886820,2211220425,2155163419,999,2,16,16106
1370562102,5805,49.8899993896484400,23.2353000640869140,35.2266006469726560,251.9264984130859400,62.0496101379394500,23.2502994537353500,27.8687896728515620,61,122,92,83,63,14614,2313687588,2320284032,2321078692,2170044854,2256043812,2266893458,2244228269,2159776996,926,2,16,44531
1370562181,5809,46.6899986267089840,23.4323997497558600,35.2294998168945300,251.3361053466797000,55.5378112792968750,23.4515895843505860,27.8133602142334000,59,121,91,84,56,14608,2302289517,2304066678,2300944384,2168861604,2256563437,2263398473,2238768987,2159362688,1681,1,16,35283
1370562236,5808,44.1199989318847660,23.8675994873046880,35.2319984436035160,251.0964050292968800,44.6744308471679700,23.7878303527832030,27.6898593902587900,58,120,91,84,56,14608,2359141778,2364808850,2364406272,2182509595,2297304475,2305328320,2271337106,2164712658,2260,1,16,31712
1370562291,5809,42.3600006103515600,23.9214000701904300,35.2335014343261700,251.2850952148437500,40.7699203491210940,23.9088191986084000,27.6336402893066400,56,121,91,83,56,14606,2232071250,2227216722,2220776512,2158517001,2213043154,2211140077,2194090130,2153370934,2594,2,16,34088
1370562346,5811,40.9099998474121100,23.9563999176025400,35.2355995178222660,251.6289062500000000,39.0732307434082000,23.9614200592041000,27.5982398986816400,56,120,93,86,55,14615,2250441627,2246117851,2239865444,2162504896,2230460406,2228723392,2207461065,2155387894,2790,1,16,21765
1370562413,5808,39.1500015258789060,24.0457992553710940,35.2411994934082000,251.3972930908203000,36.6043090820312500,24.0379791259765620,27.5777492523193360,57,121,87,85,55,14614,2384411072,2387812205,2385859428,2193369316,2332801581,2336282980,2291288292,2169140288,2601,1,16,43759
1370562492,5809,36.6899986267089840,24.5846996307373050,35.2700996398925800,249.2348937988281200,20.1853694915771500,24.5479202270507800,27.4686393737792970,55,120,91,87,52,14611,2380932288,2381887314,2379445458,2195480621,2341883812,2342948544,2294548836,2169412032,171,1,16,397
1370562547,5807,35.1100006103515600,24.7176990509033200,35.2719993591308600,248.2104034423828000,14.9420604705810550,24.7110691070556640,27.4482994079589840,54,120,89,86,63,14616,2363522441,2363740534,2361062875,2195420736,2330575469,2328993371,2282626596,2168550939,3554,1,16,16178
1370562626,5812,33.2200012207031250,24.9195003509521500,35.2694015502929700,247.0034942626953000,8.0736541748046880,24.9250106811523440,27.4160003662109380,55,121,91,83,57,14615,2435863981,2439521417,2440784612,2219162669,2392609261,2389928192,2327775570,2176585764,3381,1,16,43110